Weather in Tyulyachi

Russia / Republic of Tatarstan     55°53′25″N   50°14′13″E
temp.,
°C
wind,
m/s
gust,
m/s
humid.,
%
clouds,
%
prec.,
mm/h
press.,
hPa
HPBL,
m
4 december, sat
sat400:00+1s51197100 0.0 1010371
03:00+1s71698100 0.1 1008514
06:00+2s91998100 0.3 1005630
09:00+2s112286100 0.3 1004762
12:00+1ssw101998100 1.8 1004909
15:000wsw61197100 3.5 1006583
18:00−1sw51192100 0.0 1007417
21:00−2wsw5119090 0.0 1009473
5 december, sun
sun500:00−3wsw5108988 0.0 1010514
03:00−4wsw498988 0.0 1011412
06:00−4wsw599299 0.1 1012588
09:00−4w488890 0.1 1014645
12:00−4w588359 0.0 1015845
15:00−5wnw4789100 0.1 1017603
18:00−7nw3683100 0.1 1019485
21:00−7nnw3482100 0.1 1020406
6 december, mon
mon600:00−8nnw348269 0.0 1021412
03:00−9n24865 0.0 1023318
06:00−10nne23865 0.0 1024267
09:00−11nne22835 0.0 1026194
12:00−10n22785 0.0 1027289
15:00−10ne23845 0.0 1028168
18:00−11ne238620 0.0 1030154
21:00−11ne23865 0.0 1031159
7 december, tue
tue700:00−11ene238747 0.0 1032143
03:00−12ene248738 0.0 1033140
06:00−11e358540 0.0 1033146
09:00−11e368418 0.0 1034184
12:00−9ese4779100 0.0 1033240
15:00−9ese5108399 0.0 1032270
18:00−8ese61283100 0.0 1031334
21:00−7ese71581100 0.0 1029414
8 december, wed
wed800:00−6se81794100 0.5 1026521
03:00−4sse81696100 5.4 1024481
06:00−1s71697100 2.4 1022462
09:00+1s71797100 3.8 1023486
12:00+1s71699100 0.0 1023504
15:00+1s61590100 0.0 1023443
18:000s61586100 0.0 1023376
21:000s61488100 0.0 1024356